TimeCDT,TemperatureF,Dew PointF,Humidity,Sea Level PressureIn,VisibilityMPH,Wind Direction,Wind SpeedMPH,Gust SpeedMPH,PrecipitationIn,Events,Conditions,WindDirDegrees,DateUTC
12:15 AM,41.4,21.7,46,29.89,10.0,East,8.1,-,N/A,,Clear,90,2013-04-12 05:15:00
12:35 AM,41.0,21.4,46,29.90,10.0,East,9.2,-,N/A,,Clear,80,2013-04-12 05:35:00
12:55 AM,41.2,22.3,47,29.90,10.0,ENE,8.1,-,N/A,,Clear,60,2013-04-12 05:55:00
1:15 AM,44.2,23.4,44,29.90,10.0,East,6.9,-,N/A,,Clear,90,2013-04-12 06:15:00
1:35 AM,44.8,23.2,43,29.91,10.0,East,8.1,-,N/A,,Clear,80,2013-04-12 06:35:00
1:55 AM,42.1,23.0,47,29.91,10.0,ENE,8.1,-,N/A,,Clear,70,2013-04-12 06:55:00
2:15 AM,41.9,23.4,48,29.92,10.0,ENE,8.1,-,N/A,,Clear,60,2013-04-12 07:15:00
2:35 AM,41.9,23.9,49,29.91,10.0,ENE,8.1,-,N/A,,Clear,60,2013-04-12 07:35:00
2:55 AM,41.2,24.1,51,29.91,10.0,ENE,8.1,-,N/A,,Clear,60,2013-04-12 07:55:00
3:15 AM,40.6,24.4,53,29.91,10.0,ENE,10.4,-,N/A,,Clear,60,2013-04-12 08:15:00
3:35 AM,40.3,24.4,53,29.90,10.0,ENE,8.1,-,N/A,,Scattered Clouds,60,2013-04-12 08:35:00
3:55 AM,43.7,25.7,49,29.90,10.0,ENE,12.7,-,N/A,,Overcast,70,2013-04-12 08:55:00
4:15 AM,45.5,25.7,46,29.91,10.0,East,12.7,-,N/A,,Overcast,90,2013-04-12 09:15:00
4:35 AM,45.9,26.1,46,29.91,10.0,East,11.5,-,N/A,,Overcast,90,2013-04-12 09:35:00
4:55 AM,45.1,26.1,47,29.91,10.0,East,12.7,-,N/A,,Mostly Cloudy,80,2013-04-12 09:55:00
5:15 AM,45.5,26.1,47,29.91,10.0,East,11.5,-,N/A,,Mostly Cloudy,80,2013-04-12 10:15:00
5:35 AM,45.3,26.2,47,29.93,10.0,ENE,9.2,-,N/A,,Mostly Cloudy,60,2013-04-12 10:35:00
5:55 AM,44.6,26.2,49,29.93,10.0,ENE,9.2,-,N/A,,Scattered Clouds,60,2013-04-12 10:55:00
6:15 AM,44.8,26.2,48,29.94,10.0,NE,6.9,-,N/A,,Clear,50,2013-04-12 11:15:00
6:35 AM,42.8,25.7,51,29.95,10.0,Calm,Calm,-,N/A,,Scattered Clouds,0,2013-04-12 11:35:00
6:55 AM,42.6,25.9,52,29.95,10.0,ENE,4.6,-,N/A,,Mostly Cloudy,70,2013-04-12 11:55:00
7:15 AM,41.4,25.7,54,29.95,10.0,ENE,6.9,-,N/A,,Scattered Clouds,70,2013-04-12 12:15:00
7:35 AM,40.6,25.5,55,29.96,10.0,ENE,5.8,-,N/A,,Clear,70,2013-04-12 12:35:00
7:55 AM,40.1,25.5,56,29.97,10.0,NE,6.9,-,N/A,,Clear,40,2013-04-12 12:55:00
8:15 AM,41.2,26.1,55,29.98,10.0,ENE,3.5,-,N/A,,Clear,60,2013-04-12 13:15:00
8:35 AM,42.8,26.6,53,29.99,10.0,Calm,Calm,-,N/A,,Clear,0,2013-04-12 13:35:00
8:55 AM,45.7,26.6,47,30.00,10.0,East,3.5,-,N/A,,Mostly Cloudy,80,2013-04-12 13:55:00
9:15 AM,47.5,27.3,46,30.00,10.0,NE,3.5,-,N/A,,Mostly Cloudy,50,2013-04-12 14:15:00
9:55 AM,52.5,27.0,37,30.00,10.0,East,9.2,16.1,N/A,,Mostly Cloudy,80,2013-04-12 14:55:00
10:15 AM,54.3,26.6,34,30.00,10.0,East,10.4,-,N/A,,Scattered Clouds,100,2013-04-12 15:15:00
10:35 AM,55.8,27.0,33,30.00,10.0,East,12.7,16.1,N/A,,Clear,100,2013-04-12 15:35:00
10:55 AM,57.4,25.7,30,29.99,10.0,ESE,11.5,18.4,N/A,,Clear,110,2013-04-12 15:55:00
11:15 AM,59.2,24.8,27,29.99,10.0,SE,12.7,18.4,N/A,,Clear,140,2013-04-12 16:15:00
11:35 AM,59.5,24.6,26,29.98,10.0,SE,16.1,24.2,N/A,,Clear,130,2013-04-12 16:35:00
11:55 AM,59.7,25.0,26,29.98,10.0,SSE,13.8,21.9,N/A,,Clear,160,2013-04-12 16:55:00
12:15 PM,60.8,25.7,26,29.97,10.0,SSE,17.3,21.9,N/A,,Clear,150,2013-04-12 17:15:00
12:35 PM,62.6,25.7,25,29.96,10.0,SE,11.5,23.0,N/A,,Clear,140,2013-04-12 17:35:00
12:55 PM,64.2,24.3,22,29.96,10.0,SSE,11.5,25.3,N/A,,Clear,160,2013-04-12 17:55:00
1:15 PM,65.3,24.8,22,29.95,10.0,SSE,17.3,26.5,N/A,,Clear,160,2013-04-12 18:15:00
1:35 PM,66.4,24.4,20,29.94,10.0,SSE,18.4,24.2,N/A,,Clear,160,2013-04-12 18:35:00
1:55 PM,67.3,24.4,20,29.93,10.0,SSE,12.7,31.1,N/A,,Clear,150,2013-04-12 18:55:00
2:15 PM,68.7,24.3,19,29.91,10.0,SSE,19.6,25.3,N/A,,Clear,160,2013-04-12 19:15:00
2:35 PM,69.1,25.0,19,29.91,10.0,SSE,17.3,25.3,N/A,,Clear,160,2013-04-12 19:35:00
2:55 PM,71.1,24.4,17,29.89,10.0,South,16.1,24.2,N/A,,Clear,180,2013-04-12 19:55:00
3:15 PM,71.8,25.3,18,29.89,10.0,South,16.1,26.5,N/A,,Scattered Clouds,180,2013-04-12 20:15:00
3:35 PM,72.9,25.5,17,29.87,10.0,South,13.8,26.5,N/A,,Mostly Cloudy,180,2013-04-12 20:35:00
3:55 PM,72.7,25.0,17,29.86,10.0,SSW,13.8,25.3,N/A,,Mostly Cloudy,200,2013-04-12 20:55:00
4:15 PM,71.4,25.7,18,29.85,10.0,SSW,9.2,21.9,N/A,,Mostly Cloudy,210,2013-04-12 21:15:00
4:35 PM,72.7,24.4,16,29.84,10.0,SW,13.8,25.3,N/A,,Scattered Clouds,230,2013-04-12 21:35:00
4:55 PM,73.0,24.1,16,29.84,10.0,SSW,13.8,20.7,N/A,,Clear,200,2013-04-12 21:55:00
5:15 PM,72.7,23.4,16,29.84,10.0,North,-9999.0,-,N/A,,Scattered Clouds,0,2013-04-12 22:15:00
5:35 PM,72.7,22.8,15,29.83,10.0,SW,10.4,-,N/A,,Scattered Clouds,220,2013-04-12 22:35:00
5:55 PM,74.3,23.5,15,29.82,10.0,WSW,9.2,-,N/A,,Scattered Clouds,240,2013-04-12 22:55:00
6:15 PM,73.6,22.3,15,29.82,10.0,West,6.9,-,N/A,,Scattered Clouds,270,2013-04-12 23:15:00
6:35 PM,72.7,21.2,14,29.83,10.0,WSW,12.7,-,N/A,,Scattered Clouds,250,2013-04-12 23:35:00
6:55 PM,72.3,21.6,15,29.83,10.0,WSW,13.8,-,N/A,,Scattered Clouds,240,2013-04-12 23:55:00
7:15 PM,71.8,21.4,15,29.83,10.0,WSW,8.1,-,N/A,,Scattered Clouds,250,2013-04-13 00:15:00
7:35 PM,71.4,21.6,15,29.83,10.0,Calm,Calm,-,N/A,,Scattered Clouds,0,2013-04-13 00:35:00
7:55 PM,65.3,29.5,26,29.84,10.0,ESE,15.0,18.4,N/A,,Mostly Cloudy,110,2013-04-13 00:55:00
8:15 PM,61.5,30.6,31,29.84,10.0,ESE,16.1,23.0,N/A,,Scattered Clouds,110,2013-04-13 01:15:00
8:35 PM,59.5,31.1,34,29.84,10.0,ESE,16.1,24.2,N/A,,Clear,110,2013-04-13 01:35:00
8:55 PM,59.0,32.0,36,29.85,10.0,ESE,20.7,27.6,N/A,,Clear,120,2013-04-13 01:55:00
9:15 PM,58.1,32.9,39,29.86,10.0,SE,20.7,27.6,N/A,,Clear,130,2013-04-13 02:15:00
9:35 PM,56.1,33.1,42,29.87,10.0,SE,15.0,24.2,N/A,,Clear,130,2013-04-13 02:35:00
9:55 PM,55.9,34.7,45,29.88,10.0,SE,18.4,25.3,N/A,,Clear,140,2013-04-13 02:55:00
10:15 PM,55.4,35.6,47,29.89,10.0,SE,13.8,24.2,N/A,,Clear,140,2013-04-13 03:15:00
10:35 PM,53.6,35.8,51,29.90,10.0,SE,15.0,19.6,N/A,,Clear,140,2013-04-13 03:35:00
10:55 PM,53.1,36.3,53,29.91,10.0,SE,13.8,-,N/A,,Clear,130,2013-04-13 03:55:00
11:15 PM,51.1,35.8,56,29.91,10.0,ESE,13.8,-,N/A,,Clear,120,2013-04-13 04:15:00
11:35 PM,50.2,36.3,59,29.91,10.0,SE,15.0,20.7,N/A,,Clear,130,2013-04-13 04:35:00
11:55 PM,50.0,36.9,61,29.91,10.0,ESE,15.0,21.9,N/A,,Clear,120,2013-04-13 04:55:00